Regional Weather Roundup
Issued by NWS

Home | Current Version | Previous Version | Graphics & Text | Print | Product List | Glossary On
Versions: 1 2 3 4 5 6 7 8 9 10 11 12 13 14 15 16 17 18 19 20 21 22 23 24 25 26 27 28 29 30 31 32 33 34 35 36 37 38 39 40 41 42 43 44 45 46 47 48 49 50
000
ASUS45 KSLC 301510
RWRUT

UTAH REGIONAL WEATHER ROUNDUP
NATIONAL WEATHER SERVICE SALT LAKE CITY UT
900 AM MDT WED JUL 30 2014

UTZ001>011-023>025-301600-

NORTHERN UTAH

CITY           SKY/WX    TMP DP  RH WIND       PRES   REMARKS
HILL AFB       LGT RAIN  64  60  87 W8        30.24R
LOGAN          CLOUDY    64  61  90 NW3       30.24R
OGDEN          CLOUDY    65  60  84 W8        30.21R
PROVO AIRPORT  PTSUNNY   66  57  72 E7        30.23R
SALT LAKE CITY PTSUNNY   69  62  78 NW3       30.20R
VERNAL         PTSUNNY   64  58  80 E3        30.26R
WENDOVER       SUNNY     73  52  46 S7        30.22R
HEBER CITY     CLOUDY    61  59  94 CALM      30.27S
WEST JORDAN    CLOUDY    70  66  88 CALM      30.22R

$$

UTZ012>022-026-027-301600-

SOUTHERN UTAH

CITY           SKY/WX    TMP DP  RH WIND       PRES   REMARKS
BRYCE CANYON   SUNNY     60  52  74 CALM      30.39R
CEDAR CITY     SUNNY     63  56  78 CALM      30.26R
MILFORD        SUNNY     70  59  68 VRB3      30.23R
MOAB/CYNLANDS  SUNNY     68  59  73 CALM      30.18R
PRICE          SUNNY     68  54  60 SW3       30.27R
ST GEORGE      PTSUNNY   82  55  39 E5        30.08R
KANAB            N/A    N/A N/A N/A MISG        N/A

$$

REGIONAL REPORTS     COLORADO/ARIZONA

CITY           SKY/WX    TMP DP  RH WIND       PRES   REMARKS
CRAIG, CO      CLOUDY    56 N/A N/A W7        30.31R
GRAND JUNCTION SUNNY     67  57  70 SE8       30.22S
RIFLE          MOSUNNY   62  55  77 NE5       30.27S
MONTROSE       SUNNY     65  54  67 CALM      30.28F
CORTEZ         SUNNY     71  52  50 VRB5      30.25F
PAGE, AZ       SUNNY     79  52  38 VRB3      30.15R
GRAND CANYON   SUNNY     71  52  50 CALM      30.33R
KINGMAN        SUNNY     82  50  32 CALM      30.08R
FLAGSTAFF      SUNNY     69  50  50 CALM      30.36R

$$

REGIONAL REPORTS    NEVADA/IDAHO/WYOMING

CITY           SKY/WX    TMP DP  RH WIND       PRES   REMARKS
LAS VEGAS, NV  MOSUNNY   90  55  30 CALM      29.96R
ELY            SUNNY     56  53  90 SE5       30.34R
ELKO           SUNNY     66  48  52 CALM      30.28R
POCATELLO, ID  MOSUNNY   65  58  78 SW6       30.26R
BURLEY         MOSUNNY   66  54  65 SW3       30.23R
EVANSTON, WY   CLOUDY    55  53  93 E12       30.37R
ROCK SPRINGS   CLOUDY    58  52  80 E17       30.37R

$$


USA.gov is the U.S. government's official web portal to all federal, state and local government web resources and services.